Weather History for KCAR - May, 2013

Change the Weather History Date:

Saturday, May 18, 2013

  Actual Average Record
Temperature  
Mean Temperature 46 °F 52 °F  
Max Temperature 58 °F 64 °F 85 °F (1986)
Min Temperature 33 °F 41 °F 27 °F (1961)
Degree Days  
Heating Degree Days 19 13  
Month to date heating degree days 192 283  
Since 1 July heating degree days 8206 9049  
Cooling Degree Days 0 0  
Month to date cooling degree days 1 0  
Year to date cooling degree days 1 0  
Moisture  
Dew Point 31 °F    
Average Humidity 64    
Maximum Humidity 89    
Minimum Humidity 38    
Precipitation  
Precipitation 0.00 in 0.11 in 2.15 in (1948)
Month to date precipitation 1.31 1.82  
Year to date precipitation 9.82 11.91  
Snow  
Snow 0.00 in 0.00 in 1.80 in (1941)
Month to date snowfall 0.0 0.4  
Since 1 July snowfall 106.9 108.6  
Snow Depth 0.00 in    
Sea Level Pressure  
Sea Level Pressure 30.32 in    
Wind  
Wind Speed 6 mph (NNE)    
Max Wind Speed 13 mph    
Max Gust Speed 17 mph    
Visibility 10 miles    
Events      
T = Trace of Precipitation, MM = Missing Value Source: NWS Daily Summary

Daily Weather History Graph

Daily Weather History Graph

Search for Another Location

Airport or City:

Trip Planner

Search our weather history database for the weather conditions in past years. The results will help you decide how hot, cold, wet, or windy it might be!

Date:

Astronomy

May. 18, 2013 Rise Set
Actual Time 4:53 AM EDT 8:04 PM EDT
Civil Twilight 4:17 AM EDT 8:40 PM EDT
Nautical Twilight 3:29 AM EDT 9:28 PM EDT
Astronomical Twilight 2:31 AM EDT 10:27 PM EDT
Moon 12:38 PM EDT (5/18) 1:11 AM EDT (5/18)
Length of Visible Light 16h 23m
Length of Day
15h 10m
First Quarter, 55% of the Moon is Illuminated
May 18
First Quarter
May 25
Full
May 31
Last Quarter
Jun 8
New
Jun 16
First Quarter

Hourly Weather History & Observations

Time (EDT) Temp. Windchill Dew Point Humidity Pressure Visibility Wind Dir Wind Speed Gust Speed Precip Events Conditions
12:54 AM 39.0 °F 33.4 °F 33.1 °F 79% 30.23 in 10.0 mi North 8.1 mph - N/A   Clear
1:54 AM 37.9 °F 34.4 °F 32.0 °F 79% 30.25 in 10.0 mi North 4.6 mph - N/A   Clear
2:54 AM 36.0 °F 31.1 °F 30.9 °F 82% 30.26 in 10.0 mi North 5.8 mph - N/A   Clear
3:54 AM 34.0 °F 28.8 °F 30.9 °F 89% 30.27 in 10.0 mi North 5.8 mph - N/A   Clear
4:54 AM 34.0 °F 28.8 °F 30.0 °F 85% 30.30 in 10.0 mi North 5.8 mph - N/A   Clear
5:54 AM 35.1 °F 28.6 °F 30.9 °F 85% 30.32 in 10.0 mi North 8.1 mph - N/A   Clear
6:54 AM 37.9 °F 32.7 °F 33.1 °F 83% 30.34 in 10.0 mi North 6.9 mph - N/A   Clear
7:54 AM 42.1 °F 37.7 °F 33.1 °F 70% 30.35 in 10.0 mi NE 6.9 mph - N/A   Clear
8:54 AM 45.0 °F 41.8 °F 32.0 °F 60% 30.35 in 10.0 mi NNE 5.8 mph - N/A   Clear
9:54 AM 46.9 °F - 30.9 °F 54% 30.35 in 10.0 mi North 8.1 mph - N/A   Clear
10:54 AM 50.0 °F - 30.9 °F 48% 30.35 in 10.0 mi North 6.9 mph - N/A   Scattered Clouds
11:54 AM 51.1 °F - 30.9 °F 46% 30.35 in 10.0 mi Variable 5.8 mph - N/A   Overcast
12:54 PM 51.1 °F - 30.9 °F 46% 30.34 in 10.0 mi Variable 3.5 mph - N/A   Overcast
1:54 PM 54.0 °F - 30.0 °F 40% 30.32 in 10.0 mi NE 4.6 mph - N/A   Scattered Clouds
3:54 PM 55.0 °F - 30.0 °F 38% 30.30 in 10.0 mi Calm Calm - N/A   Partly Cloudy
4:54 PM 55.0 °F - 30.9 °F 40% 30.30 in 10.0 mi ENE 5.8 mph - N/A   Partly Cloudy
6:54 PM 53.1 °F - 30.9 °F 43% 30.30 in 10.0 mi East 6.9 mph - N/A   Clear
7:54 PM 50.0 °F - 30.9 °F 48% 30.32 in 10.0 mi ENE 4.6 mph - N/A   Clear
8:54 PM 46.9 °F - 32.0 °F 56% 30.35 in 10.0 mi NE 4.6 mph - N/A   Clear
9:54 PM 43.0 °F 39.5 °F 32.0 °F 65% 30.36 in 10.0 mi NNE 5.8 mph - N/A   Clear
10:54 PM 39.9 °F 35.8 °F 32.0 °F 73% 30.37 in 10.0 mi NNE 5.8 mph - N/A   Clear
11:54 PM 39.0 °F 36.8 °F 32.0 °F 76% 30.38 in 10.0 mi NNE 3.5 mph - N/A   Clear